Terminal Aerodrome Forecast
Issued by NWS Columbia, SC

Home | Current Version | Previous Version | Text Only | Print | Product List | Glossary On
Versions: 1 2 3 4 5 6 7 8 9 10 11 12 13 14 15 16 17 18 19 20 21 22 23 24 25 26 27 28 29 30 31 32 33 34 35 36 37 38 39 40 41 42 43 44 45 46 47
000
FTUS42 KCAE 300236 AAA
TAFAGS
TAF AMD
KAGS 300236Z 3003/3024 VRB03KT P6SM SCT090 OVC150
     FM300900 00000KT P6SM SCT035 OVC100
      TEMPO 3010/3012 4SM BR
     FM301400 11006KT P6SM BKN035 OVC080
     FM301800 11006KT P6SM VCSH BKN035 OVC050=

USA.gov is the U.S. government's official web portal to all federal, state and local government web resources and services.